PAS324 WIII-WIBB

Flight info

Callsign PAS324
Flight time 1h 20m
Altitude 34000
Route GOMEL T10 OVSET
Aircraft A320/M-SDE3FGHIRWY/LB1

Departure

Time 2026-04-24 07:02
Airport Soekarno-Hatta International Airport (WIII)

Arrival

Time 2026-04-24 08:22
Airport Sultan Syarif Kasim II International Airport / Roesmin Nurjadin AFB (WIBB)
Time Latitude Longitude Altitude Speed Heading
2026-04-24 06:30 -6.11427 106.67169 37 ft 0 kts 247°
2026-04-24 06:44 -6.11425 106.67173 38 ft 3 kts 248°
2026-04-24 06:44 -6.11416 106.67199 38 ft 4 kts 257°
2026-04-24 06:45 -6.11413 106.67226 38 ft 4 kts 280°
2026-04-24 06:45 -6.11423 106.67245 38 ft 3 kts 339°
2026-04-24 06:45 -6.11430 106.67248 36 ft 0 kts 342°
2026-04-24 06:46 -6.11429 106.67248 36 ft 0 kts 342°
2026-04-24 06:48 -6.11417 106.67244 38 ft 3 kts 343°
2026-04-24 06:48 -6.11374 106.67227 38 ft 11 kts 338°
2026-04-24 06:49 -6.11312 106.67202 38 ft 9 kts 338°
2026-04-24 06:49 -6.11262 106.67197 38 ft 7 kts 37°
2026-04-24 06:49 -6.11230 106.67265 38 ft 14 kts 68°
2026-04-24 06:49 -6.11192 106.67361 38 ft 16 kts 68°
2026-04-24 06:50 -6.11141 106.67459 36 ft 16 kts 32°
2026-04-24 06:50 -6.11040 106.67419 38 ft 17 kts 317°
2026-04-24 06:50 -6.10988 106.67316 36 ft 17 kts 276°
2026-04-24 06:50 -6.11003 106.67198 38 ft 21 kts 255°
2026-04-24 06:51 -6.11038 106.67047 37 ft 23 kts 257°
2026-04-24 06:51 -6.11087 106.66891 36 ft 24 kts 247°
2026-04-24 06:51 -6.11151 106.66734 38 ft 25 kts 248°
2026-04-24 06:51 -6.11215 106.66571 38 ft 26 kts 248°
2026-04-24 06:52 -6.11283 106.66403 37 ft 26 kts 248°
2026-04-24 06:52 -6.11353 106.66228 37 ft 27 kts 248°
2026-04-24 06:52 -6.11422 106.66054 37 ft 25 kts 248°
2026-04-24 06:52 -6.11488 106.65889 35 ft 26 kts 248°
2026-04-24 06:53 -6.11555 106.65718 36 ft 27 kts 248°
2026-04-24 06:53 -6.11627 106.65541 37 ft 28 kts 248°
2026-04-24 06:53 -6.11699 106.65359 37 ft 28 kts 248°
2026-04-24 06:53 -6.11773 106.65172 38 ft 29 kts 248°
2026-04-24 06:54 -6.11845 106.64998 38 ft 25 kts 248°
2026-04-24 06:54 -6.11909 106.64835 38 ft 26 kts 248°
2026-04-24 06:54 -6.11974 106.64672 36 ft 23 kts 248°
2026-04-24 06:54 -6.12028 106.64536 37 ft 18 kts 248°
2026-04-24 06:55 -6.12069 106.64431 38 ft 14 kts 249°
2026-04-24 06:55 -6.12101 106.64350 38 ft 11 kts 248°
2026-04-24 06:55 -6.12127 106.64286 38 ft 9 kts 248°
2026-04-24 06:55 -6.12148 106.64232 38 ft 8 kts 248°
2026-04-24 06:56 -6.12169 106.64181 37 ft 11 kts 248°
2026-04-24 06:56 -6.12195 106.64115 37 ft 9 kts 248°
2026-04-24 06:56 -6.12218 106.64059 37 ft 8 kts 248°
2026-04-24 06:56 -6.12236 106.64015 38 ft 6 kts 248°
2026-04-24 06:57 -6.12245 106.63993 39 ft 0 kts 248°
2026-04-24 06:57 -6.12258 106.63960 39 ft 7 kts 249°
2026-04-24 06:58 -6.12262 106.63920 39 ft 5 kts 278°
2026-04-24 06:58 -6.12249 106.63895 39 ft 3 kts 309°
2026-04-24 06:58 -6.12236 106.63886 37 ft 1 kts 330°
2026-04-24 06:58 -6.12205 106.63878 39 ft 8 kts 351°
2026-04-24 06:59 -6.12135 106.63895 39 ft 12 kts 12°
2026-04-24 06:59 -6.12081 106.63911 37 ft 7 kts 47°
2026-04-24 06:59 -6.12075 106.63926 38 ft 0 kts 68°
2026-04-24 07:00 -6.12074 106.63927 38 ft 2 kts 68°
2026-04-24 07:01 -6.12007 106.64091 38 ft 61 kts 68°
2026-04-24 07:01 -6.11769 106.64693 37 ft 121 kts 68°
2026-04-24 07:01 -6.11391 106.65636 38 ft 169 kts 68°
2026-04-24 07:01 -6.10931 106.66798 390 ft 183 kts 68°
2026-04-24 07:02 -6.10460 106.67983 1145 ft 183 kts 64°
2026-04-24 07:02 -6.09642 106.68976 1621 ft 195 kts 38°
2026-04-24 07:02 -6.08433 106.69766 1858 ft 220 kts 31°
2026-04-24 07:02 -6.07019 106.70564 2200 ft 245 kts 30°
2026-04-24 07:03 -6.05481 106.71419 2759 ft 256 kts 30°
2026-04-24 07:03 -6.03911 106.72302 3447 ft 262 kts 31°
2026-04-24 07:03 -6.02313 106.73224 4231 ft 266 kts 32°
2026-04-24 07:03 -6.00711 106.74173 5033 ft 268 kts 32°
2026-04-24 07:04 -5.99074 106.75102 5804 ft 272 kts 24°
2026-04-24 07:04 -5.97195 106.75362 6500 ft 281 kts 352°
2026-04-24 07:04 -5.95421 106.74529 7182 ft 290 kts 319°
2026-04-24 07:04 -5.94223 106.72887 7877 ft 296 kts 297°
2026-04-24 07:05 -5.93437 106.70967 8587 ft 299 kts 290°
2026-04-24 07:05 -5.92780 106.68971 9286 ft 302 kts 289°
2026-04-24 07:05 -5.92105 106.66966 9954 ft 305 kts 290°
2026-04-24 07:05 -5.91352 106.64940 10326 ft 320 kts 292°
2026-04-24 07:06 -5.90473 106.62806 10472 ft 340 kts 294°
2026-04-24 07:06 -5.89499 106.60606 10895 ft 349 kts 295°
2026-04-24 07:06 -5.88472 106.58383 11501 ft 352 kts 296°
2026-04-24 07:06 -5.87420 106.56157 12137 ft 354 kts 296°
2026-04-24 07:07 -5.86358 106.53919 12764 ft 355 kts 296°
2026-04-24 07:07 -5.85292 106.51667 13355 ft 359 kts 296°
2026-04-24 07:07 -5.83143 106.47090 14419 ft 366 kts 296°
2026-04-24 07:08 -5.82058 106.44768 14977 ft 369 kts 296°
2026-04-24 07:08 -5.80971 106.42427 15503 ft 371 kts 296°
2026-04-24 07:08 -5.79877 106.40061 16009 ft 375 kts 296°
2026-04-24 07:08 -5.78775 106.37678 16509 ft 378 kts 295°
2026-04-24 07:09 -5.77661 106.35275 16994 ft 381 kts 296°
2026-04-24 07:09 -5.76536 106.32851 17466 ft 384 kts 296°
2026-04-24 07:09 -5.75398 106.30408 17939 ft 388 kts 296°
2026-04-24 07:09 -5.74085 106.28039 18393 ft 389 kts 306°
2026-04-24 07:10 -5.72341 106.25954 18852 ft 391 kts 317°
2026-04-24 07:10 -5.70288 106.24221 19292 ft 393 kts 322°
2026-04-24 07:10 -5.68138 106.22513 19743 ft 396 kts 322°
2026-04-24 07:10 -5.65974 106.20794 20190 ft 398 kts 322°
2026-04-24 07:11 -5.63799 106.19063 20624 ft 401 kts 322°
2026-04-24 07:11 -5.61608 106.17315 21048 ft 403 kts 322°
2026-04-24 07:11 -5.59406 106.15554 21460 ft 406 kts 322°
2026-04-24 07:11 -5.57193 106.13787 21868 ft 409 kts 322°
2026-04-24 07:12 -5.54960 106.12007 22279 ft 411 kts 322°
2026-04-24 07:12 -5.52711 106.10216 22675 ft 413 kts 322°
2026-04-24 07:12 -5.50457 106.08420 23052 ft 415 kts 322°
2026-04-24 07:12 -5.48185 106.06609 23403 ft 417 kts 322°
2026-04-24 07:13 -5.45906 106.04792 23752 ft 419 kts 322°
2026-04-24 07:13 -5.43615 106.02964 24087 ft 422 kts 322°
2026-04-24 07:13 -5.41318 106.01131 24401 ft 424 kts 322°
2026-04-24 07:13 -5.38995 105.99287 24710 ft 426 kts 322°
2026-04-24 07:14 -5.36659 105.97434 24996 ft 429 kts 322°
2026-04-24 07:14 -5.34314 105.95570 25291 ft 432 kts 322°
2026-04-24 07:14 -5.31954 105.93696 25579 ft 434 kts 322°
2026-04-24 07:14 -5.29584 105.91812 25863 ft 436 kts 322°
2026-04-24 07:15 -5.27205 105.89919 26131 ft 438 kts 322°
2026-04-24 07:15 -5.24813 105.88013 26386 ft 440 kts 322°
2026-04-24 07:15 -5.22411 105.86100 26650 ft 442 kts 322°
2026-04-24 07:15 -5.19994 105.84181 26905 ft 444 kts 322°
2026-04-24 07:16 -5.17559 105.82272 27147 ft 445 kts 323°
2026-04-24 07:16 -5.15911 105.81039 27301 ft 446 kts 323°
2026-04-24 07:16 -5.13382 105.79220 27530 ft 449 kts 324°
2026-04-24 07:16 -5.10814 105.77426 27754 ft 451 kts 325°
2026-04-24 07:17 -5.08230 105.75644 27977 ft 452 kts 325°
2026-04-24 07:17 -5.05631 105.73846 28195 ft 454 kts 325°
2026-04-24 07:17 -5.03033 105.72029 28433 ft 456 kts 324°
2026-04-24 07:17 -5.00442 105.70196 28646 ft 458 kts 324°
2026-04-24 07:18 -4.97848 105.68344 28857 ft 459 kts 324°
2026-04-24 07:18 -4.95240 105.66477 29070 ft 461 kts 324°
2026-04-24 07:18 -4.92625 105.64607 29279 ft 462 kts 324°
2026-04-24 07:18 -4.89999 105.62730 29485 ft 464 kts 324°
2026-04-24 07:19 -4.87361 105.60852 29686 ft 466 kts 324°
2026-04-24 07:19 -4.84715 105.58972 29871 ft 468 kts 324°
2026-04-24 07:19 -4.82057 105.57089 30068 ft 469 kts 324°
2026-04-24 07:19 -4.79385 105.55196 30245 ft 470 kts 324°
2026-04-24 07:20 -4.76709 105.53299 30435 ft 472 kts 324°
2026-04-24 07:20 -4.74031 105.51399 30608 ft 473 kts 324°
2026-04-24 07:20 -4.71338 105.49484 30817 ft 473 kts 324°
2026-04-24 07:20 -4.68657 105.47577 31082 ft 472 kts 324°
2026-04-24 07:21 -4.65979 105.45676 31322 ft 471 kts 324°
2026-04-24 07:21 -4.63304 105.43776 31552 ft 471 kts 324°
2026-04-24 07:21 -4.60631 105.41880 31791 ft 471 kts 324°
2026-04-24 07:21 -4.57954 105.39981 32028 ft 471 kts 324°
2026-04-24 07:22 -4.55279 105.38083 32279 ft 470 kts 324°
2026-04-24 07:22 -4.52619 105.36195 32543 ft 469 kts 324°
2026-04-24 07:22 -4.49955 105.34304 32802 ft 469 kts 324°
2026-04-24 07:22 -4.47295 105.32413 33056 ft 468 kts 324°
2026-04-24 07:23 -4.44640 105.30525 33289 ft 468 kts 324°
2026-04-24 07:23 -4.41986 105.28639 33535 ft 468 kts 324°
2026-04-24 07:23 -4.39368 105.26777 33757 ft 467 kts 324°
2026-04-24 07:23 -4.36686 105.24877 33828 ft 463 kts 324°
2026-04-24 07:24 -4.31502 105.21201 33830 ft 457 kts 324°
2026-04-24 07:24 -4.26318 105.17524 33830 ft 456 kts 324°
2026-04-24 07:25 -4.21139 105.13852 33833 ft 456 kts 324°
2026-04-24 07:25 -4.15928 105.10157 33829 ft 456 kts 325°
2026-04-24 07:26 -4.10774 105.06507 33829 ft 456 kts 323°
2026-04-24 07:26 -4.06054 105.02268 33825 ft 456 kts 317°
2026-04-24 07:27 -4.01424 104.97926 33825 ft 456 kts 317°
2026-04-24 07:27 -3.96783 104.93589 33821 ft 456 kts 317°
2026-04-24 07:28 -3.92135 104.89252 33812 ft 457 kts 317°
2026-04-24 07:28 -3.87483 104.84907 33809 ft 457 kts 317°
2026-04-24 07:29 -3.82834 104.80550 33815 ft 457 kts 317°
2026-04-24 07:29 -3.78187 104.76204 33820 ft 457 kts 317°
2026-04-24 07:30 -3.73539 104.71857 33820 ft 457 kts 317°
2026-04-24 07:30 -3.68895 104.67508 33821 ft 457 kts 317°
2026-04-24 07:31 -3.64249 104.63153 33817 ft 457 kts 317°
2026-04-24 07:31 -3.59596 104.58806 33817 ft 457 kts 317°
2026-04-24 07:32 -3.54947 104.54468 33819 ft 457 kts 317°
2026-04-24 07:32 -3.50295 104.50128 33819 ft 457 kts 317°
2026-04-24 07:33 -3.45645 104.45785 33819 ft 457 kts 317°
2026-04-24 07:33 -3.40996 104.41440 33820 ft 457 kts 317°
2026-04-24 07:34 -3.36344 104.37091 33819 ft 457 kts 317°
2026-04-24 07:34 -3.31686 104.32751 33821 ft 457 kts 317°
2026-04-24 07:35 -3.27032 104.28409 33821 ft 457 kts 317°
2026-04-24 07:35 -3.22381 104.24065 33822 ft 458 kts 317°
2026-04-24 07:36 -3.17733 104.19720 33819 ft 457 kts 317°
2026-04-24 07:36 -3.13086 104.15388 33821 ft 457 kts 317°
2026-04-24 07:37 -3.08433 104.11040 33820 ft 457 kts 317°
2026-04-24 07:37 -3.03795 104.06703 33821 ft 457 kts 317°
2026-04-24 07:38 -2.99143 104.02362 33814 ft 457 kts 317°
2026-04-24 07:38 -2.94496 103.98034 33815 ft 457 kts 317°
2026-04-24 07:39 -2.89847 103.93697 33820 ft 456 kts 317°
2026-04-24 07:39 -2.85204 103.89362 33822 ft 456 kts 317°
2026-04-24 07:40 -2.80564 103.85036 33824 ft 456 kts 317°
2026-04-24 07:40 -2.75930 103.80714 33820 ft 456 kts 317°
2026-04-24 07:41 -2.71286 103.76385 33810 ft 455 kts 317°
2026-04-24 07:41 -2.66656 103.72070 33806 ft 455 kts 317°
2026-04-24 07:42 -2.62049 103.67777 33805 ft 456 kts 317°
2026-04-24 07:42 -2.57382 103.63432 33804 ft 455 kts 317°
2026-04-24 07:43 -2.52745 103.59109 33806 ft 456 kts 317°
2026-04-24 07:43 -2.48111 103.54784 33807 ft 456 kts 317°
2026-04-24 07:44 -2.43465 103.50458 33806 ft 456 kts 317°
2026-04-24 07:44 -2.38823 103.46140 33807 ft 456 kts 317°
2026-04-24 07:45 -2.34193 103.41821 33807 ft 455 kts 317°
2026-04-24 07:45 -2.29595 103.37520 33806 ft 455 kts 317°
2026-04-24 07:46 -2.24964 103.33199 33807 ft 455 kts 317°
2026-04-24 07:46 -2.20329 103.28878 33810 ft 456 kts 317°
2026-04-24 07:47 -2.15704 103.24553 33814 ft 455 kts 317°
2026-04-24 07:47 -2.11078 103.20227 33815 ft 455 kts 317°
2026-04-24 07:48 -2.06457 103.15911 33812 ft 454 kts 317°
2026-04-24 07:48 -2.01837 103.11599 33809 ft 454 kts 317°
2026-04-24 07:49 -1.97222 103.07299 33806 ft 454 kts 317°
2026-04-24 07:49 -1.92607 103.02992 33801 ft 453 kts 317°
2026-04-24 07:50 -1.87998 102.98687 33798 ft 454 kts 317°
2026-04-24 07:50 -1.83391 102.94383 33801 ft 453 kts 317°
2026-04-24 07:51 -1.78785 102.90083 33803 ft 453 kts 317°
2026-04-24 07:51 -1.74173 102.85782 33802 ft 453 kts 317°
2026-04-24 07:52 -1.69576 102.81486 33804 ft 452 kts 317°
2026-04-24 07:52 -1.64984 102.77197 33804 ft 452 kts 317°
2026-04-24 07:53 -1.60386 102.72907 33798 ft 452 kts 317°
2026-04-24 07:53 -1.55322 102.69240 33792 ft 451 kts 334°
2026-04-24 07:54 -1.49409 102.67184 33789 ft 450 kts 344°
2026-04-24 07:54 -1.43396 102.65418 33788 ft 450 kts 344°
2026-04-24 07:55 -1.37370 102.63655 33788 ft 451 kts 344°
2026-04-24 07:55 -1.31357 102.61880 33790 ft 451 kts 343°
2026-04-24 07:56 -1.25343 102.60100 33783 ft 450 kts 343°
2026-04-24 07:56 -1.19336 102.58324 33783 ft 451 kts 344°
2026-04-24 07:57 -1.13326 102.56555 33781 ft 451 kts 344°
2026-04-24 07:57 -1.07304 102.54776 33780 ft 451 kts 344°
2026-04-24 07:58 -1.01266 102.52998 33783 ft 452 kts 344°
2026-04-24 07:58 -0.95238 102.51222 33783 ft 452 kts 344°
2026-04-24 07:59 -0.90224 102.49747 33760 ft 452 kts 344°
2026-04-24 07:59 -0.84192 102.47970 33774 ft 452 kts 344°
2026-04-24 08:00 -0.78161 102.46198 33770 ft 452 kts 344°
2026-04-24 08:00 -0.72134 102.44424 33768 ft 451 kts 344°
2026-04-24 08:01 -0.66104 102.42649 33755 ft 452 kts 344°
2026-04-24 08:01 -0.60077 102.40869 33765 ft 452 kts 342°
2026-04-24 08:02 -0.54492 102.38048 33572 ft 448 kts 323°
2026-04-24 08:02 -0.52153 102.36021 33131 ft 443 kts 316°
2026-04-24 08:02 -0.49962 102.33875 32594 ft 441 kts 316°
2026-04-24 08:03 -0.47775 102.31737 32071 ft 438 kts 316°
2026-04-24 08:03 -0.45602 102.29622 31550 ft 436 kts 316°
2026-04-24 08:03 -0.43432 102.27516 31033 ft 433 kts 316°
2026-04-24 08:03 -0.41268 102.25423 30520 ft 431 kts 316°
2026-04-24 08:04 -0.39125 102.23350 30029 ft 428 kts 315°
2026-04-24 08:04 -0.36993 102.21287 29537 ft 427 kts 315°
2026-04-24 08:04 -0.34863 102.19224 29039 ft 424 kts 316°
2026-04-24 08:04 -0.32756 102.17181 28572 ft 421 kts 316°
2026-04-24 08:05 -0.30664 102.15147 28107 ft 418 kts 316°
2026-04-24 08:05 -0.28588 102.13126 27651 ft 415 kts 316°
2026-04-24 08:05 -0.26532 102.11127 27192 ft 412 kts 316°
2026-04-24 08:05 -0.24483 102.09138 26727 ft 409 kts 316°
2026-04-24 08:06 -0.22444 102.07168 26275 ft 406 kts 316°
2026-04-24 08:06 -0.20416 102.05213 25823 ft 404 kts 316°
2026-04-24 08:06 -0.18404 102.03269 25336 ft 402 kts 316°
2026-04-24 08:06 -0.16402 102.01333 24870 ft 399 kts 316°
2026-04-24 08:07 -0.14414 101.99409 24383 ft 397 kts 316°
2026-04-24 08:07 -0.12437 101.97493 23892 ft 395 kts 316°
2026-04-24 08:07 -0.10470 101.95583 23398 ft 393 kts 316°
2026-04-24 08:07 -0.08512 101.93684 22902 ft 391 kts 316°
2026-04-24 08:08 -0.06565 101.91797 22424 ft 390 kts 316°
2026-04-24 08:08 -0.04623 101.89914 21942 ft 388 kts 316°
2026-04-24 08:08 -0.02687 101.88035 21464 ft 387 kts 316°
2026-04-24 08:09 0.01158 101.84309 20523 ft 383 kts 316°
2026-04-24 08:09 0.03068 101.82462 20056 ft 382 kts 316°
2026-04-24 08:09 0.04970 101.80623 19585 ft 380 kts 316°
2026-04-24 08:09 0.06867 101.78787 19123 ft 379 kts 316°
2026-04-24 08:10 0.08774 101.76982 18662 ft 377 kts 321°
2026-04-24 08:10 0.10912 101.75492 18218 ft 374 kts 329°
2026-04-24 08:10 0.13104 101.74097 17762 ft 373 kts 329°
2026-04-24 08:10 0.15284 101.72705 17318 ft 372 kts 328°
2026-04-24 08:11 0.17457 101.71314 16866 ft 370 kts 328°
2026-04-24 08:11 0.19619 101.69926 16435 ft 368 kts 328°
2026-04-24 08:11 0.21766 101.68544 16004 ft 367 kts 328°
2026-04-24 08:11 0.23903 101.67169 15646 ft 363 kts 328°
2026-04-24 08:12 0.26032 101.65803 15221 ft 361 kts 328°
2026-04-24 08:12 0.28134 101.64456 14801 ft 360 kts 328°
2026-04-24 08:12 0.30225 101.63120 14458 ft 354 kts 328°
2026-04-24 08:12 0.32300 101.61799 13904 ft 352 kts 328°
2026-04-24 08:13 0.34351 101.60494 13510 ft 349 kts 328°
2026-04-24 08:13 0.36388 101.59201 13123 ft 346 kts 328°
2026-04-24 08:13 0.38553 101.58181 12733 ft 342 kts 343°
2026-04-24 08:13 0.40877 101.57734 12277 ft 340 kts 358°
2026-04-24 08:14 0.43236 101.57685 11863 ft 338 kts 359°
2026-04-24 08:14 0.45574 101.57638 11446 ft 334 kts 359°
2026-04-24 08:14 0.47877 101.57586 11017 ft 331 kts 359°
2026-04-24 08:14 0.50173 101.57533 10600 ft 329 kts 359°
2026-04-24 08:15 0.52426 101.57480 10451 ft 318 kts 359°
2026-04-24 08:15 0.54606 101.57429 10282 ft 307 kts 359°
2026-04-24 08:15 0.56714 101.57276 9686 ft 303 kts 353°
2026-04-24 08:15 0.58790 101.57035 9216 ft 297 kts 353°
2026-04-24 08:16 0.60831 101.56800 8790 ft 294 kts 353°
2026-04-24 08:16 0.62824 101.56572 8380 ft 283 kts 353°
2026-04-24 08:16 0.64726 101.56289 7975 ft 272 kts 342°
2026-04-24 08:16 0.66327 101.55390 7577 ft 261 kts 315°
2026-04-24 08:17 0.67340 101.53913 7174 ft 260 kts 289°
2026-04-24 08:17 0.67691 101.52151 6748 ft 259 kts 276°
2026-04-24 08:17 0.67904 101.50390 6331 ft 251 kts 276°
2026-04-24 08:17 0.68109 101.48670 5917 ft 248 kts 276°
2026-04-24 08:18 0.68140 101.46953 5500 ft 248 kts 254°
2026-04-24 08:18 0.67246 101.45524 5085 ft 244 kts 215°
2026-04-24 08:18 0.65705 101.44884 4680 ft 242 kts 189°
2026-04-24 08:18 0.64038 101.44688 4283 ft 242 kts 181°
2026-04-24 08:19 0.62357 101.44625 3854 ft 239 kts 180°
2026-04-24 08:19 0.60728 101.44626 3471 ft 231 kts 178°
2026-04-24 08:19 0.59134 101.44655 3112 ft 229 kts 178°
2026-04-24 08:19 0.57564 101.44674 2734 ft 221 kts 178°
2026-04-24 08:20 0.56059 101.44675 2361 ft 211 kts 179°
2026-04-24 08:20 0.54619 101.44661 2031 ft 203 kts 180°
2026-04-24 08:20 0.53244 101.44639 1711 ft 192 kts 181°
2026-04-24 08:20 0.51937 101.44612 1359 ft 183 kts 181°
2026-04-24 08:21 0.50708 101.44581 1081 ft 169 kts 182°
2026-04-24 08:21 0.49594 101.44551 794 ft 157 kts 182°
2026-04-24 08:21 0.48506 101.44522 526 ft 153 kts 182°
2026-04-24 08:21 0.47453 101.44492 278 ft 150 kts 182°
2026-04-24 08:22 0.46428 101.44466 147 ft 141 kts 181°
2026-04-24 08:22 0.45679 101.44440 131 ft 64 kts 181°
2026-04-24 08:22 0.45362 101.44431 134 ft 25 kts 182°
2026-04-24 08:22 0.45202 101.44440 131 ft 11 kts 158°
2026-04-24 08:23 0.45179 101.44436 131 ft 2 kts 296°
2026-04-24 08:23 0.45217 101.44427 131 ft 9 kts 359°
2026-04-24 08:23 0.45295 101.44428 128 ft 11 kts
2026-04-24 08:23 0.45369 101.44431 131 ft 10 kts
2026-04-24 08:24 0.45456 101.44433 130 ft 17 kts
2026-04-24 08:24 0.45585 101.44437 128 ft 22 kts
2026-04-24 08:24 0.45767 101.44441 132 ft 27 kts
2026-04-24 08:24 0.45958 101.44448 135 ft 27 kts
2026-04-24 08:25 0.46147 101.44453 139 ft 27 kts
2026-04-24 08:25 0.46317 101.44457 144 ft 16 kts
2026-04-24 08:25 0.46375 101.44475 145 ft 6 kts 53°
2026-04-24 08:25 0.46384 101.44505 146 ft 4 kts 84°
2026-04-24 08:26 0.46386 101.44541 146 ft 6 kts 88°
2026-04-24 08:26 0.46387 101.44577 146 ft 5 kts 89°
2026-04-24 08:26 0.46387 101.44618 146 ft 7 kts 90°
2026-04-24 08:26 0.46387 101.44660 146 ft 5 kts 90°
2026-04-24 08:27 0.46387 101.44682 145 ft 2 kts 90°
2026-04-24 08:27 0.46387 101.44688 145 ft 0 kts 89°